Regional Weather Roundup
Issued by NWS

Home | Current Version | Previous Version | Graphics & Text | Print | Product List | Glossary On
Versions: 1 2 3 4 5 6 7 8 9 10 11 12 13 14 15 16 17 18 19 20 21 22 23 24 25 26 27 28 29 30 31 32 33 34 35 36 37 38 39 40 41 42 43 44 45 46 47 48 49 50
886
ASUS45 KPSR 251510
RWRAZ

ARIZONA HOURLY REGIONAL WEATHER ROUNDUP
NATIONAL WEATHER SERVICE PHOENIX AZ
800 AM MST MON SEP 25 2017

NOTE: FAIR INDICATES FEW OR NO CLOUDS BELOW 12,000 FEET WITH NO
SIGNIFICANT WEATHER AND/OR OBSTRUCTIONS TO VISIBILITY.

AZZ001>003-036-251600-
NORTHWEST ARIZONA

CITY           SKY/WX    TMP DP  RH WIND       PRES   REMARKS
BULLHEAD CITY  MOSUNNY   70  36  28 N20       29.90R
KINGMAN        SUNNY     54  29  38 E7        30.01R
$$

AZZ004>008-015-016-018-251600-
NORTH CENTRAL ARIZONA

CITY           SKY/WX    TMP DP  RH WIND       PRES   REMARKS
GRAND CANYON   SUNNY     46  24  42 VRB5      30.09R
WILLIAMS       SUNNY     45  19  36 CALM      30.07S
PRESCOTT       SUNNY     48  26  42 CALM      30.02R
FLAGSTAFF      SUNNY     43  20  39 NE5       30.08S
PAYSON           N/A     57  14  18 N10       30.00R
PAGE           SUNNY     53  26  35 CALM      30.06R
$$

AZZ009>014-017-251600-
NORTHEAST ARIZONA

CITY           SKY/WX    TMP DP  RH WIND       PRES   REMARKS
WINSLOW        SUNNY     48  18  30 W6        30.06R
SAINT JOHNS    SUNNY     43  13  29 N3        30.05R
WINDOW ROCK    SUNNY     39  16  39 S5        30.10R
SHOW LOW       SUNNY     41  21  45 VRB3      30.08R
$$

AZZ540-542>544-546-548-251600-
GREATER PHOENIX AREA

CITY           SKY/WX    TMP DP  RH WIND       PRES   REMARKS
PHOENIX        MOSUNNY   65  24  21 E3        29.82R
BUCKEYE        SUNNY     66  21  18 N10       29.84R
GLENDALE       SUNNY     64  27  24 N3        29.84R
LUKE AFB       SUNNY     64  27  25 NE3       29.82R
DEER VALLEY    SUNNY     65  17  15 CALM      29.83R
SCOTTSDALE     SUNNY     65  26  23 CALM      29.85R
MESA-FALCON    MOSUNNY   66  23  19 N3        29.84R
MESA-GATEWAY   SUNNY     63  21  20 SE6       29.85R
CHANDLER       SUNNY     61  34  36 E5        29.83R
$$

AZZ539-553-251600-
SOUTHWEST MARICOPA COUNTY AND PINAL COUNTY

CITY           SKY/WX    TMP DP  RH WIND       PRES   REMARKS
CASA GRANDE    NOT AVBL
GILA BEND      SUNNY     63  20  19 E3        29.82R
$$

AZZ503-504-507>509-251600-
SOUTHEAST ARIZONA

CITY           SKY/WX    TMP DP  RH WIND       PRES   REMARKS
TUCSON         SUNNY     61  24  24 SE10      29.90R
DAVIS-MONTHAN  SUNNY     62  23  22 S5        29.88R
RYAN FIELD     SUNNY     57  19  23 MISG      29.89R
NOGALES        SUNNY     55  30  38 CALM      29.93R
SIERRA VISTA   SUNNY     64  17  16 CALM      29.97S
DOUGLAS        SUNNY     58  26  29 CALM      29.95R
SAFFORD        SUNNY     64  23  21 SE3       29.89R
$$

AZZ532-251600-
SOUTHWEST ARIZONA

CITY           SKY/WX    TMP DP  RH WIND       PRES   REMARKS
YUMA           MOSUNNY   72  25  17 NW8       29.82R
$$

CAZ041-043-047-048-061-525>527-560>570-251600-
SOUTHERN CALIFORNIA

CITY           SKY/WX    TMP DP  RH WIND       PRES   REMARKS
DOWNTOWN L.A.  SUNNY     67  40  37 CALM      29.85R
L.A. AIRPORT   MOSUNNY   69  37  30 NE3       29.86R
SAN DIEGO      MOSUNNY   65  38  36 CALM      29.86S
BURBANK        SUNNY     64  30  27 CALM      29.87R
ONTARIO        MOSUNNY   65  32  29 CALM      29.88R
RIVERSIDE      SUNNY     62  37  39 E5        29.88R
PALM SPRINGS   MOSUNNY   67  29  24 N3        29.89S
EL CENTRO NAS  MOSUNNY   66  25  21 W8        29.85R
IMPERIAL       SUNNY     64  35  34 W8        29.83R
BLYTHE         SUNNY     72  27  18 N12       29.85R
NEEDLES        SUNNY     72  33  24 N17G24    29.91R
$$

NVZ020-UTZ003-251600-
SOUTHERN NEVADA-UTAH

CITY           SKY/WX    TMP DP  RH WIND       PRES   REMARKS
LAS VEGAS      MOSUNNY   60  28  29 S3        30.00R
SALT LAKE CITY MOSUNNY   45  41  86 SE8       30.14R
$$

NMZ009-TXZ055-251600-
NEW MEXICO-WEST TEXAS

CITY           SKY/WX    TMP DP  RH WIND       PRES   REMARKS
ALBUQUERQUE    MOSUNNY   56  23  27 N8        30.01S
EL PASO        MOSUNNY   74  46  36 SW7       29.89R
$$


........................KEY........................
SKY/WX - SKY CONDITION/WEATHER
TMP    - TEMPERATURE IN FAHRENHEIT
DP     - DEW POINT IN FAHRENHEIT
RH     - RELATIVE HUMIDITY IN PERCENT
WIND   - DIRECTION AND SPEED IN MILES PER HOUR (MPH)
VRB    - VARIABLE WIND DIRECTION
PRES   - MEAN SEA LEVEL PRESSURE IN INCHES OF MERCURY
         F - FALLING PRESSURE   R - RISING PRESSURE
         S - STEADY PRESSURE
VSB    - VISIBILITY IN MILES
HX     - HEAT INDEX IN FAHRENHEIT
WCI    - WIND CHILL INDEX IN FAHRENHEIT
TC     - TEMPERATURE IN CELSIUS WHICH IS ALSO KNOWN AS
         TEMPERATURE IN CENTIGRADE
AFB    - AIR FORCE BASE
         LUKE AFB IS LUKE AIR FORCE BASE
         DAVIS-MONTHAN IS DAVIS-MONTHAN AIR FORCE BASE
NAS    - NAVAL AIR STATION
         EL CENTRO NAS IS EL CENTRO NAVAL AIR STATION
N/A    - NOT AVAILABLE





USA.gov is the U.S. government's official web portal to all federal, state and local government web resources and services.